Location: Allen Lane School
(37.8198°N, 89.7382°W)
Time: 17:20:24
(UTC+00:00)

Hubble Space Telescope - Pass Details

Date: 13 December 2022
Orbit: 529 x 532 km, 28.5° (Epoch: 07 February)

Event Time Altitude Azimuth Distance (km) Brightness Sun altitude
Exits shadow 10:23:26 16° 140° (SE) 1,445 3.4 -31.2°
Drops below altitude 10° 10:24:37 10° 127° (SE) 1,765 4.1 -31.0°
Sets 10:27:14 0° 112° (ESE) 2,653 5.4 -30.5°
